Regional Weather Roundup
Issued by NWS

Home | Current Version | Previous Version | Text Only | Print | Product List | Glossary Off
Versions: 1 2 3 4 5 6 7 8 9 10 11 12 13 14 15 16 17 18 19 20 21 22 23 24 25 26 27 28 29 30 31 32 33 34 35 36 37 38 39 40 41 42 43 44 45 46 47 48 49 50

488
ASUS43 KLOT 232103
RWRIL

ILLINOIS REGIONAL WEATHER ROUNDUP
NATIONAL WEATHER SERVICE CHICAGO/ROMEOVILLE IL
400 PM CDT MON APR 23 2018

NOTE: "FAIR" INDICATES FEW OR NO CLOUDS BELOW 12,000 FEET WITH NO
SIGNIFICANT WEATHER AND/OR OBSTRUCTIONS TO VISIBILITY.

* THESE STATIONS ARE NOT UNDER NWS QUALITY CONTROL. THEY ALSO MAY NOT
  REPORT WEATHER SUCH AS PRECIPITATION OR FOG.

ILZ001-002-007-009-015-016-024-232200-
NORTHWEST ILLINOIS

CITY           SKY/WX    TMP DP  RH WIND       PRES   REMARKS
MOLINE         FAIR      74  34  23 E16G22    30.04F
STERLING*      FAIR      72  33  24 NE10G21   30.06F
SAVANNA*       FAIR      69  28  21 E14       30.08F
$$

ILZ003-004-008-010-011-017-018-232200-
NORTH CENTRAL ILLINOIS

CITY           SKY/WX    TMP DP  RH WIND       PRES   REMARKS
ROCKFORD       CLOUDY    69  29  22 NE13      30.10F
FREEPORT*      FAIR      69  31  24 NE15      30.11F
ROCHELLE*      FAIR      69  32  25 NE17      30.08F
DE KALB*       FAIR      68  31  24 E15G21    30.09F
PERU*          FAIR      73  32  22 E17       30.05F
$$

ILZ005-006-012>014-019>023-232200-
NORTHEAST ILLINOIS

CITY           SKY/WX    TMP DP  RH WIND       PRES   REMARKS
CHICAGO-OHARE  PTSUNNY   62  30  29 NE16      30.10F
CHICAGO-MIDWAY CLOUDY    61  31  32 NE15      30.10F
AURORA         FAIR      66  27  23 NE14      30.08F
LANSING*       CLOUDY    51  39  63 N9        30.11S
JOLIET*        FAIR      65  36  34 NE13G18   30.08F
WAUKEGAN       FAIR      60  21  22 NE14G24   30.11F
DUPAGE AIRPORT FAIR      64  28  25 NE16      30.09F
KANKAKEE*      PTSUNNY   68  45  43 SE16      30.06S
WHEELING       FAIR      61  27  27 NE14G22   30.13F
MORRIS*        PTSUNNY   66  33  29 NE8       30.06S
ROMEOVILLE*    FAIR      64  35  34 NE15      30.08F
NORTHERLY ISL    N/A     50  30  46 E14         N/A
$$

LMZ740>746-232200-
SOUTHERN LAKE MICHIGAN

STATION/POSITION SKY/WX   TEMP    WIND        PRES    VSBY  WAVE
                          AIR SEA DIR/SP/G                  HT/PER
                          (F)     (DEG/KT/KT) (MB)    (MI)  (FT/S)
HARRISON CRIB              43     350/ 14/ 15   N/A
BURNHAM HARBOR             50     350/ 14/ 17   N/A
CALUMET HARBOR             46     330/ 16/ 20 1019.4
BURNS HARBOR               42     270/  2/  4 1020.3F
MICHIGAN CITY              42     240/  8/  8   N/A
ST. JOSEPH                 44 42   20/  8/ 10 1019.6F         1/ 3
$$

ILZ025>027-034>036-040-047-049-050-058-095>099-232200-
WEST-CENTRAL ILLINOIS

CITY           SKY/WX    TMP DP  RH WIND       PRES   REMARKS
QUINCY         PTSUNNY   71  37  28 N16       30.00F
GALESBURG*     PTSUNNY   74  33  22 NE16G25   30.05F
MACOMB*        PTSUNNY   70  33  25 NE21      30.05F
JACKSONVILLE*  PTSUNNY   68  46  43 NE20      29.99F
PITTSFIELD*    MOSUNNY   69  42  38 N14G20    30.00S
$$

ILZ028>032-037-038-041>044-048-051>054-059>061-232200-
CENTRAL ILLINOIS

CITY           SKY/WX    TMP DP  RH WIND       PRES   REMARKS
PONTIAC        CLOUDY    71  42  34 E15G28    30.03F
DECATUR        CLOUDY    57  54  89 E18       30.01F
PEORIA         CLOUDY    67  36  31 NE13      30.03F
LACON*         PTSUNNY   66  35  31 E14G20    30.04F
LINCOLN*       CLOUDY    66  51  57 E13       30.01F
SPRINGFIELD    CLOUDY    65  53  65 E16G25    30.00F
TAYLORVILLE    CLOUDY    56  54  94 E10       30.00F FOG
$$

ILZ033-039-045-046-055>057-062-063-232200-
EAST-CENTRAL ILLINOIS

CITY           SKY/WX    TMP DP  RH WIND       PRES   REMARKS
CHAMPAIGN      CLOUDY    57  56  96 E12       30.03F
DANVILLE*      CLOUDY    56  55  97 E10       30.02F
RANTOUL*       LGT RAIN  61  55  81 E14       30.04S
MATTOON        LGT RAIN  56  53  90 E8        29.99F
PARIS*         CLOUDY    57  55  93 E12       30.03F
$$

ILZ079-100>102-232200-
SOUTHWEST ILLINOIS

CITY           SKY/WX    TMP DP  RH WIND       PRES   REMARKS
ALTON          CLOUDY    57  55  94 NE12      29.98F
CAHOKIA*       CLOUDY    59  53  80 N14       29.96F
SPARTA*        CLOUDY    60  60  97 N10       29.93F
$$

ILZ064>066-069>071-074>076-080>082-084>086-088>090-092>094-232200-
SOUTH-CENTRAL ILLINOIS

CITY           SKY/WX    TMP DP  RH WIND       PRES   REMARKS
CARBONDALE     CLOUDY    64  57  78 NE9       29.89F
CAIRO*         PTSUNNY   65  58  77 CALM      29.88F
EFFINGHAM*     CLOUDY    58  56  92 NE7       29.99F
MARION         PTSUNNY   64  57  77 NE9       29.90F
MT. VERNON     CLOUDY    62  56  80 NE13      29.93F
CENTRALIA*     CLOUDY    62  56  83 NE8       29.93F
SALEM*         CLOUDY    61  55  80 NE13      29.95F
METROPOLIS*    CLOUDY    58  57  95 CALM      29.90R
$$

ILZ067-068-072-073-078-083-087-091-232200-
SOUTHEAST ILLINOIS

CITY           SKY/WX    TMP DP  RH WIND       PRES   REMARKS
LAWRENCEVILLE  CLOUDY    61  56  83 MISG      29.97F
FLORA*         CLOUDY    61  56  81 NE8       29.96F
FAIRFIELD*     CLOUDY    63  57  81 NE10      29.92F
HARRISBURG*    PTSUNNY   65  59  79 E12       29.91S
ROBINSON*      CLOUDY    57  55  92 E12       29.99F
CARMI*         CLOUDY    63  57  81 NE13      29.91F
$$

ABBREVIATIONS USED IN REMARKS
   TC - TEMPERATURE IN CELSIUS
  WCI - WIND CHILL INDEX
   HX - HEAT INDEX
  VSB - VISIBILITY
$$





USA.gov is the U.S. government's official web portal to all federal, state and local government web resources and services.